Temp
61 61 61 61 61 61 61 62 61 61 60 60 61 61 62 62 63 63 63 63 63 62 62 62 62 61 60 58 58 58 58 57 56 56 56 55 55 53 52 52 52 51 50 50 49 49 49 49 49 50 50 49 48 48 48 47 47 47 47 47 48 47 47 47 47 48 48 48 48
61 61 61 61 61 61 61 61 61 61 60 60 61 62 62 62 63 63 63 63 63 62 62 61 60 59 59 58 59 58 58 56 55 55 56 55 54 53 52 52 51 51 51 50 49 49 50 49 49 50 50 49 48 48 47 47 47 47 47 47 47 47 47 47 48 48 48 48 48
61 61 61 60 60 60 60 60 60 60 60 60 61 62 62 62 63 63 63 63 62 61 61 61 60 59 58 58 58 58 58 57 56 56 56 55 54 53 52 52 51 51 51 50 50 50 50 49 50 51 52 50 49 48 48 46 47 48 48 47 47 48 48 50 49 48 48 48 48
61 61 60 60 60 60 60 60 60 60 60 60 61 62 63 63 63 63 62 61 60 60 61 61 59 58 58 58 58 58 58 58 56 56 56 55 53 52 52 52 51 50 50 50 49 49 49 49 51 52 52 50 48 49 49 49 48 48 49 48 48 48 49 50 49 49 49 48 48
61 60 60 60 60 60 60 60 60 60 60 60 61 62 62 63 62 62 61 61 61 61 61 60 59 59 59 58 58 57 57 57 57 57 56 54 53 52 52 51 50 50 49 49 49 49 49 49 51 51 51 49 50 50 50 49 48 48 49 49 49 49 49 50 49 49 49 49 48
60 60 60 60 60 60 60 60 60 60 60 60 60 60 61 61 62 62 61 61 60 60 59 59 59 59 58 58 57 57 57 56 57 56 55 53 53 52 51 50 50 50 50 49 49 49 49 50 52 52 50 50 50 49 49 48 48 48 49 49 49 50 50 49 49 49 49 49 48
60 60 60 61 60 60 61 60 60 60 60 60 59 59 60 60 61 61 60 61 60 59 59 60 59 59 58 57 57 57 57 56 56 55 54 53 52 51 51 51 50 50 50 49 49 49 49 50 52 53 52 51 51 50 48 48 49 49 49 49 50 50 50 49 50 50 50 49 48
61 61 61 61 61 61 60 60 60 60 59 59 59 59 60 60 60 60 60 60 60 59 59 60 59 58 58 58 57 57 56 56 55 54 53 53 52 51 51 50 50 50 50 50 50 50 50 51 53 52 51 51 51 50 48 48 49 49 50 50 50 50 50 50 50 50 50 49 48
61 61 61 61 61 60 60 60 60 59 59 59 59 60 60 60 60 60 60 60 59 59 59 59 58 58 58 57 57 57 56 56 55 54 53 52 52 51 51 50 50 50 50 50 50 50 50 52 53 52 51 52 52 51 49 48 50 50 50 50 50 50 50 49 49 49 50 50 51
60 61 61 60 60 60 60 60 59 59 59 59 59 59 60 60 60 60 60 60 60 59 59 58 58 57 57 57 57 56 56 56 55 54 53 52 52 51 51 51 51 51 50 50 50 50 50 52 52 51 51 51 51 51 50 49 50 50 50 51 51 50 50 49 49 50 51 53 54
60 60 60 60 60 60 60 59 59 59 59 58 59 59 59 60 61 61 61 60 59 58 58 58 57 57 57 56 56 56 56 56 55 54 53 53 53 52 52 52 52 51 51 51 51 51 51 52 51 51 50 51 51 50 50 49 50 50 50 50 50 50 50 50 50 52 54 55 54
60 61 61 60 60 60 60 59 59 59 58 58 58 59 59 60 60 60 60 59 58 57 57 57 57 57 57 57 56 56 55 55 55 54 54 53 53 52 52 52 52 52 52 51 51 51 52 51 51 51 50 50 51 50 50 49 49 49 49 50 50 50 51 53 54 55 55 54 53
61 61 60 60 60 60 60 59 59 58 58 58 58 59 60 60 60 59 59 58 58 57 57 56 56 57 57 57 56 55 55 55 54 54 54 53 53 53 53 52 52 52 52 51 52 52 52 52 51 51 51 51 51 51 50 49 49 50 50 52 53 53 54 55 56 55 54 52 52
61 60 60 60 60 60 60 59 59 58 58 58 58 59 59 59 59 59 59 58 58 57 56 55 56 56 57 56 56 55 55 55 54 54 54 54 53 53 53 53 52 52 52 52 52 52 52 52 52 52 52 51 51 51 51 51 53 53 54 54 54 54 54 55 55 54 53 52 52
60 60 60 60 60 60 59 59 59 58 58 58 58 59 59 59 59 59 59 58 57 57 56 56 55 55 55 55 55 55 55 55 54 54 54 54 54 53 53 53 53 52 52 53 52 52 53 53 53 52 52 52 53 53 54 54 55 56 56 56 55 54 54 54 54 54 54 54 55
60 60 60 60 59 59 59 59 59 58 58 58 58 59 59 59 59 59 58 58 57 57 56 56 55 55 55 55 56 56 56 55 55 55 55 55 54 54 54 54 53 53 54 54 54 54 53 53 54 54 54 55 56 57 57 57 57 57 57 57 56 56 56 55 55 55 56 56 56
60 60 59 59 59 59 59 59 58 58 58 58 59 59 60 59 59 59 58 58 58 57 56 56 56 56 56 56 56 57 57 56 55 55 55 56 56 56 56 56 55 55 55 56 56 56 55 55 57 57 57 57 57 57 57 57 57 57 57 57 57 57 57 56 56 56 57 56 56
59 59 59 59 59 59 59 58 58 58 58 58 59 59 59 59 59 59 59 59 59 58 57 56 56 56 56 56 57 57 57 57 56 56 57 57 57 57 57 57 57 57 57 57 57 57 57 57 58 58 58 57 56 56 56 57 57 57 58 57 58 58 58 57 57 57 57 57 57
59 59 59 59 59 59 58 58 58 58 58 59 59 59 59 59 59 59 59 59 59 59 58 58 57 57 57 57 57 57 58 58 57 58 58 58 58 58 58 58 58 57 57 57 57 58 58 58 58 58 58 56 56 56 57 57 57 56 57 57 58 58 57 57 57 57 56 56 56
59 59 59 59 59 58 58 58 58 58 58 59 59 59 59 59 59 59 59 59 59 59 59 59 58 58 58 58 58 59 59 59 59 59 59 59 59 58 58 58 58 57 57 57 57 58 59 59 59 58 57 56 56 57 57 58 57 57 57 57 57 56 56 55 55 55 54 54 53
59 59 59 59 59 58 58 58 58 58 58 59 59 59 59 59 59 59 59 59 60 60 60 60 59 58 58 59 59 59 60 60 60 59 59 59 58 58 58 58 58 57 57 57 58 58 59 59 59 58 58 58 57 57 57 57 57 56 55 55 54 54 53 53 52 52 52 51 51
58 58 58 58 58 58 58 58 58 59 59 59 59 59 59 59 59 59 59 60 60 60 60 60 59 59 59 59 59 59 59 59 59 59 59 58 58 57 57 58 57 57 57 56 57 57 57 57 57 57 57 57 57 57 57 56 56 55 54 53 52 51 51 51 50 50 50 50 50
58 58 58 58 58 58 58 58 59 59 59 59 59 59 59 59 59 59 60 60 60 60 60 60 60 60 60 59 59 58 57 56 57 57 57 57 56 56 56 56 56 56 55 55 55 55 55 54 55 55 55 56 56 56 56 56 55 54 53 52 51 50 50 49 49 49 49 49 49
57 57 57 58 58 58 58 59 59 59 58 58 58 58 58 58 58 59 59 59 59 59 59 59 59 59 59 59 58 58 57 56 55 55 55 55 55 55 55 55 55 55 54 54 54 54 53 53 53 53 54 55 55 55 55 54 53 53 52 51 50 49 48 48 48 48 48 48 48
57 57 57 57 57 58 58 58 58 57 57 57 57 57 57 57 58 58 57 57 57 57 57 57 57 57 58 58 58 58 57 56 55 55 55 55 55 55 55 55 55 55 54 54 54 54 54 54 54 54 54 54 54 54 53 53 52 52 51 50 49 48 47 47 47 47 46 46 46
56 56 56 57 57 57 57 57 56 56 56 56 56 56 56 57 57 57 56 56 56 56 56 56 56 57 57 57 57 57 57 56 56 55 55 54 54 54 54 54 54 54 54 54 54 55 55 55 55 54 54 54 54 53 53 52 52 51 51 50 49 48 47 46 46 45 45 45 45
55 55 55 56 56 56 56 56 56 56 55 55 55 56 56 56 56 56 55 55 55 55 56 56 56 56 56 56 56 55 55 55 55 54 54 54 54 53 53 54 54 54 54 54 55 55 55 55 55 54 54 53 53 52 51 51 50 50 49 49 48 48 47 46 45 44 44 44 44
56 56 56 56 56 56 56 56 56 55 55 56 56 56 56 56 56 55 55 55 55 55 55 55 55 55 55 55 54 54 53 53 53 53 53 53 53 53 53 53 53 53 54 54 54 54 54 54 54 53 53 52 51 51 50 49 49 48 48 47 47 46 45 45 44 44 43 43 43
57 57 56 56 56 56 56 56 56 56 56 56 57 57 57 57 56 55 55 55 56 55 54 54 54 54 54 53 53 53 53 52 53 53 52 52 52 52 52 53 53 53 53 54 54 54 53 53 53 52 52 51 50 50 49 48 47 46 46 45 44 44 43 43 43 43 42 42 42
57 57 56 56 56 55 55 56 56 56 57 57 57 57 57 57 56 56 55 55 55 54 54 54 54 53 52 52 52 52 52 52 52 52 52 52 52 52 52 52 53 53 53 53 53 53 53 53 52 52 51 51 50 49 48 47 46 45 44 43 43 42 42 42 41 41 41 41 41
56 56 56 55 55 55 55 55 56 56 56 56 56 56 55 55 54 54 53 53 53 53 53 53 52 51 51 51 51 51 51 51 52 52 52 52 52 52 52 52 52 52 52 53 53 53 52 52 51 51 50 49 48 47 46 45 44 43 42 42 41 41 41 41 41 40 40 40 40
55 55 55 54 54 54 54 55 55 55 55 54 54 53 53 52 52 52 52 51 51 51 51 51 50 50 50 50 50 50 51 51 51 51 52 52 52 52 52 52 52 52 52 52 52 52 52 51 50 50 49 48 47 46 45 44 43 42 41 41 41 41 41 41 40 40 40 40 39
55 55 55 54 54 54 54 54 54 54 54 53 53 52 52 52 51 51 51 51 51 51 50 50 50 50 50 50 50 50 50 50 51 51 51 51 51 51 51 51 51 51 51 52 51 51 51 50 50 49 48 47 46 45 44 43 42 41 40 40 40 40 40 40 39 40 40 40 40
55 55 55 54 54 54 54 54 54 54 53 53 53 53 53 52 52 52 52 51 51 51 51 50 50 50 50 50 50 49 50 50 50 51 51 51 51 50 50 50 50 51 51 51 51 50 50 50 49 48 47 46 45 44 43 42 41 40 40 39 39 39 39 39 39 39 39 40 40
55 54 54 54 54 54 54 54 54 54 53 53 53 52 52 52 51 51 51 50 50 50 50 50 50 49 49 49 49 49 49 50 50 50 50 50 50 50 49 49 49 50 50 51 50 50 50 49 48 48 47 45 44 43 42 41 40 40 39 39 39 39 39 38 37 37 37 38 40
54 54 54 54 54 54 54 53 53 53 52 52 51 51 50 50 50 50 50 49 49 49 48 48 48 48 48 48 49 49 49 49 49 50 50 50 50 49 49 48 49 49 50 50 50 50 49 49 48 47 46 44 43 42 41 40 40 39 39 38 38 38 38 38 37 36 35 36 38
54 54 53 53 53 53 53 53 53 52 51 51 50 50 49 49 49 49 49 48 48 47 47 47 47 47 47 47 47 48 48 49 49 49 49 50 49 49 48 48 48 49 49 50 50 49 49 48 47 46 45 43 42 41 41 40 39 38 38 37 37 37 38 38 38 37 37 36 39
54 54 53 53 53 53 53 52 52 51 50 50 49 49 49 48 48 48 48 48 47 46 46 46 46 46 46 47 47 47 48 48 48 48 49 49 49 48 48 48 48 48 48 49 49 49 48 48 47 46 44 42 41 41 40 39 38 38 37 37 37 37 37 37 38 38 38 39 43
53 53 53 53 53 52 52 52 51 50 50 49 48 48 48 48 47 47 47 48 47 46 46 45 46 46 46 47 47 47 47 47 48 48 48 48 48 48 48 47 47 47 48 48 48 48 48 47 46 45 44 42 41 40 39 38 38 38 37 37 37 37 37 37 37 38 38 39 44
53 53 53 53 52 52 51 51 50 50 49 48 48 48 47 47 47 47 47 47 47 46 46 45 45 46 46 47 46 46 46 46 47 47 47 47 48 48 48 47 47 47 47 48 48 47 47 46 46 44 43 41 40 39 38 37 38 37 37 37 37 37 37 37 38 38 38 38 41
52 52 52 52 52 51 51 50 49 49 49 48 48 47 47 47 47 47 47 46 46 46 46 45 45 46 46 46 46 46 45 45 46 46 47 47 47 47 47 47 47 47 47 47 48 47 47 46 46 45 43 41 39 38 37 36 37 37 37 37 37 37 37 37 38 38 38 38 39
MSLP
1005.40 1005.56 1005.72 1005.84 1006.00 1006.12 1006.24 1006.32 1006.40 1006.56 1006.72 1006.84 1007.00 1007.12 1007.28 1007.48 1007.68 1007.88 1008.12 1008.32 1008.48 1008.56 1008.60 1008.60 1008.72 1009.00 1009.32 1009.68 1010.00 1010.28 1010.56 1010.80 1011.04 1011.24 1011.40 1011.60 1011.80 1012.00 1012.24 1012.44 1012.60 1012.84 1013.00 1013.20 1013.40 1013.56 1013.72 1013.84 1014.00 1014.12 1014.28 1014.40 1014.56 1014.68 1014.80 1014.88 1015.00 1015.16 1015.28 1015.40 1015.44 1015.56 1015.68 1015.80 1015.84 1015.88 1015.96 1016.00 1015.96
1005.32 1005.52 1005.68 1005.84 1005.96 1006.08 1006.16 1006.28 1006.40 1006.56 1006.72 1006.84 1006.92 1007.00 1007.16 1007.36 1007.56 1007.80 1008.04 1008.24 1008.36 1008.40 1008.48 1008.52 1008.72 1009.00 1009.32 1009.64 1009.92 1010.16 1010.44 1010.72 1010.96 1011.16 1011.36 1011.56 1011.72 1011.96 1012.16 1012.40 1012.56 1012.72 1012.96 1013.12 1013.32 1013.48 1013.68 1013.84 1013.92 1014.08 1014.24 1014.36 1014.52 1014.64 1014.76 1014.84 1014.96 1015.08 1015.20 1015.32 1015.36 1015.40 1015.56 1015.68 1015.72 1015.72 1015.76 1015.84 1015.84
1005.28 1005.44 1005.60 1005.80 1005.96 1006.04 1006.12 1006.20 1006.32 1006.48 1006.64 1006.80 1006.84 1007.00 1007.12 1007.36 1007.52 1007.72 1007.96 1008.12 1008.28 1008.32 1008.36 1008.44 1008.72 1009.00 1009.32 1009.60 1009.88 1010.12 1010.36 1010.64 1010.84 1011.04 1011.28 1011.48 1011.68 1011.88 1012.08 1012.28 1012.48 1012.68 1012.84 1013.00 1013.16 1013.32 1013.52 1013.68 1013.80 1013.96 1014.08 1014.28 1014.40 1014.56 1014.72 1014.76 1014.84 1015.00 1015.12 1015.20 1015.28 1015.36 1015.44 1015.56 1015.56 1015.56 1015.64 1015.72 1015.84
1005.12 1005.36 1005.56 1005.68 1005.84 1005.96 1006.00 1006.08 1006.24 1006.40 1006.60 1006.72 1006.84 1007.00 1007.12 1007.32 1007.48 1007.68 1007.84 1008.04 1008.16 1008.20 1008.24 1008.40 1008.72 1009.00 1009.28 1009.56 1009.84 1010.08 1010.28 1010.52 1010.76 1011.00 1011.24 1011.40 1011.64 1011.84 1012.04 1012.20 1012.40 1012.64 1012.80 1012.88 1013.08 1013.24 1013.40 1013.56 1013.68 1013.80 1013.92 1014.12 1014.28 1014.40 1014.52 1014.68 1014.76 1014.84 1014.92 1015.04 1015.12 1015.28 1015.36 1015.40 1015.40 1015.44 1015.56 1015.64 1015.68
1005.08 1005.24 1005.40 1005.56 1005.72 1005.88 1006.00 1006.04 1006.16 1006.36 1006.56 1006.72 1006.84 1007.00 1007.16 1007.32 1007.48 1007.64 1007.80 1007.96 1008.00 1008.04 1008.16 1008.36 1008.72 1009.00 1009.28 1009.52 1009.76 1010.04 1010.28 1010.52 1010.72 1010.92 1011.12 1011.40 1011.60 1011.80 1011.96 1012.12 1012.28 1012.48 1012.68 1012.84 1013.00 1013.12 1013.28 1013.44 1013.60 1013.72 1013.84 1014.00 1014.08 1014.20 1014.36 1014.48 1014.68 1014.76 1014.84 1014.92 1015.00 1015.12 1015.16 1015.24 1015.28 1015.36 1015.40 1015.52 1015.56
1005.12 1005.24 1005.32 1005.48 1005.68 1005.88 1006.00 1006.00 1006.12 1006.32 1006.48 1006.68 1006.84 1007.00 1007.20 1007.36 1007.48 1007.60 1007.72 1007.80 1007.84 1008.00 1008.16 1008.40 1008.72 1009.00 1009.28 1009.52 1009.76 1010.04 1010.28 1010.48 1010.68 1010.88 1011.12 1011.32 1011.52 1011.72 1011.92 1012.08 1012.24 1012.40 1012.56 1012.72 1012.88 1013.08 1013.24 1013.40 1013.52 1013.64 1013.76 1013.88 1014.00 1014.12 1014.28 1014.40 1014.56 1014.72 1014.80 1014.84 1014.92 1014.96 1015.00 1015.12 1015.20 1015.28 1015.36 1015.40 1015.48
1005.12 1005.20 1005.28 1005.40 1005.68 1005.84 1005.92 1006.00 1006.16 1006.28 1006.44 1006.64 1006.84 1007.00 1007.20 1007.40 1007.52 1007.56 1007.60 1007.64 1007.84 1008.04 1008.24 1008.44 1008.72 1009.00 1009.28 1009.56 1009.80 1010.04 1010.28 1010.48 1010.72 1010.88 1011.04 1011.28 1011.48 1011.68 1011.84 1012.00 1012.12 1012.32 1012.48 1012.64 1012.84 1013.00 1013.16 1013.28 1013.40 1013.56 1013.68 1013.80 1013.96 1014.08 1014.20 1014.32 1014.44 1014.60 1014.72 1014.80 1014.84 1014.84 1014.96 1015.04 1015.08 1015.12 1015.24 1015.32 1015.40
1005.00 1005.12 1005.24 1005.40 1005.56 1005.72 1005.84 1006.00 1006.12 1006.32 1006.48 1006.64 1006.84 1007.00 1007.16 1007.40 1007.56 1007.56 1007.56 1007.64 1007.84 1008.04 1008.24 1008.44 1008.72 1008.96 1009.20 1009.48 1009.72 1010.00 1010.24 1010.44 1010.64 1010.84 1011.04 1011.20 1011.40 1011.60 1011.76 1011.92 1012.12 1012.28 1012.40 1012.56 1012.72 1012.92 1013.08 1013.20 1013.32 1013.44 1013.60 1013.76 1013.88 1014.00 1014.12 1014.28 1014.40 1014.52 1014.64 1014.72 1014.72 1014.76 1014.84 1014.88 1014.96 1015.00 1015.12 1015.20 1015.28
1004.96 1005.04 1005.20 1005.40 1005.56 1005.68 1005.84 1006.00 1006.12 1006.28 1006.48 1006.68 1006.84 1007.04 1007.24 1007.40 1007.52 1007.52 1007.56 1007.68 1007.84 1008.04 1008.24 1008.44 1008.72 1008.96 1009.20 1009.44 1009.68 1009.92 1010.12 1010.40 1010.60 1010.80 1011.00 1011.16 1011.40 1011.56 1011.72 1011.92 1012.08 1012.24 1012.36 1012.52 1012.64 1012.80 1012.96 1013.12 1013.28 1013.36 1013.48 1013.64 1013.76 1013.88 1014.00 1014.12 1014.28 1014.40 1014.52 1014.56 1014.64 1014.72 1014.72 1014.80 1014.84 1014.92 1015.00 1015.08 1015.12
1004.96 1005.08 1005.24 1005.40 1005.56 1005.68 1005.84 1005.96 1006.12 1006.28 1006.48 1006.72 1006.92 1007.12 1007.28 1007.44 1007.44 1007.44 1007.52 1007.68 1007.88 1008.12 1008.28 1008.52 1008.76 1009.00 1009.24 1009.44 1009.68 1009.84 1010.08 1010.28 1010.48 1010.72 1010.96 1011.12 1011.28 1011.48 1011.68 1011.84 1012.00 1012.12 1012.28 1012.44 1012.56 1012.72 1012.92 1013.04 1013.20 1013.36 1013.44 1013.56 1013.68 1013.80 1013.92 1014.04 1014.16 1014.28 1014.40 1014.44 1014.56 1014.60 1014.72 1014.72 1014.76 1014.84 1014.84 1014.88 1014.92
1005.00 1005.12 1005.28 1005.40 1005.56 1005.68 1005.84 1006.00 1006.20 1006.36 1006.52 1006.72 1007.00 1007.24 1007.40 1007.44 1007.40 1007.40 1007.56 1007.72 1008.00 1008.20 1008.40 1008.56 1008.76 1009.00 1009.24 1009.44 1009.64 1009.84 1010.00 1010.16 1010.40 1010.60 1010.84 1011.04 1011.24 1011.40 1011.56 1011.68 1011.88 1012.04 1012.20 1012.32 1012.52 1012.72 1012.84 1013.00 1013.12 1013.28 1013.40 1013.48 1013.56 1013.72 1013.84 1014.00 1014.12 1014.20 1014.28 1014.36 1014.44 1014.56 1014.64 1014.60 1014.68 1014.68 1014.72 1014.72 1014.72
1005.00 1005.12 1005.28 1005.40 1005.56 1005.68 1005.84 1006.08 1006.28 1006.40 1006.56 1006.80 1007.04 1007.28 1007.40 1007.40 1007.40 1007.48 1007.64 1007.84 1008.04 1008.24 1008.40 1008.60 1008.76 1008.96 1009.16 1009.40 1009.60 1009.80 1010.00 1010.16 1010.40 1010.60 1010.84 1011.00 1011.16 1011.32 1011.48 1011.64 1011.76 1011.92 1012.08 1012.28 1012.40 1012.60 1012.76 1012.92 1013.08 1013.24 1013.36 1013.44 1013.52 1013.64 1013.76 1013.92 1014.04 1014.16 1014.28 1014.32 1014.40 1014.44 1014.48 1014.44 1014.44 1014.44 1014.48 1014.56 1014.56
1005.00 1005.12 1005.28 1005.40 1005.56 1005.68 1005.84 1006.08 1006.24 1006.40 1006.60 1006.84 1007.08 1007.28 1007.36 1007.36 1007.40 1007.52 1007.68 1007.84 1008.04 1008.28 1008.48 1008.68 1008.80 1008.96 1009.12 1009.36 1009.56 1009.80 1010.00 1010.16 1010.36 1010.56 1010.72 1010.88 1011.08 1011.24 1011.40 1011.56 1011.68 1011.84 1012.00 1012.20 1012.36 1012.52 1012.68 1012.84 1013.00 1013.12 1013.24 1013.36 1013.44 1013.56 1013.68 1013.84 1013.96 1014.08 1014.16 1014.24 1014.28 1014.28 1014.28 1014.28 1014.24 1014.24 1014.28 1014.40 1014.44
1004.96 1005.12 1005.28 1005.40 1005.56 1005.72 1005.84 1006.00 1006.16 1006.36 1006.56 1006.80 1007.04 1007.20 1007.32 1007.36 1007.44 1007.56 1007.68 1007.84 1008.08 1008.28 1008.52 1008.72 1008.84 1009.00 1009.16 1009.36 1009.56 1009.76 1009.96 1010.12 1010.28 1010.48 1010.68 1010.84 1011.00 1011.16 1011.32 1011.48 1011.64 1011.80 1011.96 1012.12 1012.28 1012.40 1012.56 1012.72 1012.84 1012.96 1013.08 1013.24 1013.36 1013.44 1013.56 1013.68 1013.80 1013.88 1014.00 1014.04 1014.12 1014.12 1014.12 1014.04 1014.00 1014.12 1014.24 1014.36 1014.40
1004.92 1005.08 1005.24 1005.40 1005.56 1005.68 1005.84 1006.00 1006.16 1006.40 1006.56 1006.76 1007.00 1007.20 1007.32 1007.36 1007.48 1007.56 1007.68 1007.88 1008.08 1008.28 1008.52 1008.72 1008.92 1009.12 1009.24 1009.40 1009.56 1009.72 1009.92 1010.12 1010.28 1010.44 1010.64 1010.84 1011.00 1011.12 1011.28 1011.40 1011.56 1011.72 1011.88 1012.04 1012.20 1012.32 1012.44 1012.56 1012.68 1012.84 1012.96 1013.12 1013.20 1013.32 1013.44 1013.56 1013.60 1013.68 1013.80 1013.84 1013.88 1013.88 1013.88 1013.84 1013.92 1014.04 1014.16 1014.24 1014.28
1004.92 1005.08 1005.24 1005.36 1005.52 1005.68 1005.88 1006.04 1006.24 1006.40 1006.60 1006.84 1007.08 1007.24 1007.28 1007.40 1007.48 1007.60 1007.76 1007.96 1008.12 1008.36 1008.60 1008.80 1009.00 1009.20 1009.36 1009.44 1009.60 1009.72 1009.92 1010.08 1010.28 1010.40 1010.56 1010.76 1010.92 1011.04 1011.20 1011.36 1011.52 1011.68 1011.84 1012.00 1012.12 1012.28 1012.36 1012.40 1012.56 1012.68 1012.80 1012.96 1013.04 1013.12 1013.28 1013.40 1013.48 1013.56 1013.56 1013.60 1013.64 1013.64 1013.68 1013.76 1013.84 1013.96 1014.00 1014.08 1014.12
1004.92 1005.08 1005.20 1005.32 1005.48 1005.68 1005.88 1006.08 1006.28 1006.48 1006.76 1007.00 1007.16 1007.24 1007.28 1007.40 1007.52 1007.68 1007.84 1008.00 1008.20 1008.44 1008.72 1008.88 1009.04 1009.20 1009.40 1009.52 1009.64 1009.72 1009.88 1010.08 1010.20 1010.36 1010.52 1010.68 1010.80 1010.96 1011.12 1011.28 1011.40 1011.56 1011.72 1011.88 1012.04 1012.16 1012.28 1012.36 1012.40 1012.52 1012.64 1012.76 1012.88 1013.00 1013.12 1013.24 1013.32 1013.36 1013.40 1013.40 1013.40 1013.48 1013.56 1013.68 1013.72 1013.80 1013.84 1013.96 1014.00
1004.96 1005.04 1005.16 1005.28 1005.52 1005.68 1005.88 1006.12 1006.36 1006.64 1006.92 1007.12 1007.16 1007.16 1007.24 1007.36 1007.52 1007.68 1007.84 1008.00 1008.24 1008.52 1008.72 1008.88 1009.04 1009.16 1009.32 1009.48 1009.60 1009.68 1009.84 1010.00 1010.16 1010.28 1010.40 1010.56 1010.72 1010.84 1011.04 1011.20 1011.36 1011.52 1011.68 1011.84 1011.92 1012.04 1012.12 1012.28 1012.36 1012.44 1012.56 1012.64 1012.76 1012.88 1013.00 1013.08 1013.12 1013.20 1013.28 1013.32 1013.36 1013.44 1013.52 1013.60 1013.64 1013.72 1013.80 1013.84 1013.88
1004.88 1005.00 1005.16 1005.40 1005.60 1005.80 1006.00 1006.28 1006.56 1006.80 1007.00 1007.04 1007.04 1007.12 1007.24 1007.40 1007.56 1007.72 1007.92 1008.12 1008.28 1008.48 1008.68 1008.84 1009.00 1009.16 1009.28 1009.40 1009.56 1009.68 1009.80 1009.92 1010.08 1010.24 1010.36 1010.52 1010.72 1010.88 1011.04 1011.20 1011.40 1011.52 1011.64 1011.76 1011.84 1011.96 1012.04 1012.20 1012.28 1012.40 1012.44 1012.56 1012.64 1012.76 1012.88 1013.00 1013.08 1013.16 1013.24 1013.32 1013.40 1013.44 1013.52 1013.56 1013.60 1013.64 1013.68 1013.76 1013.80
1004.84 1005.08 1005.28 1005.52 1005.76 1006.00 1006.20 1006.40 1006.60 1006.76 1006.88 1006.92 1007.00 1007.12 1007.28 1007.40 1007.56 1007.76 1008.00 1008.16 1008.28 1008.40 1008.56 1008.76 1008.96 1009.12 1009.24 1009.32 1009.48 1009.64 1009.76 1009.88 1010.08 1010.28 1010.40 1010.56 1010.72 1010.88 1011.04 1011.20 1011.36 1011.44 1011.56 1011.68 1011.80 1011.88 1011.96 1012.08 1012.20 1012.28 1012.36 1012.44 1012.56 1012.68 1012.80 1012.92 1013.04 1013.12 1013.24 1013.28 1013.40 1013.44 1013.52 1013.56 1013.60 1013.64 1013.68 1013.80 1013.88
1005.00 1005.20 1005.40 1005.64 1005.84 1006.08 1006.28 1006.40 1006.56 1006.68 1006.80 1006.88 1007.00 1007.12 1007.28 1007.44 1007.64 1007.84 1008.00 1008.12 1008.28 1008.40 1008.56 1008.72 1008.88 1009.04 1009.16 1009.32 1009.48 1009.64 1009.80 1009.92 1010.12 1010.28 1010.44 1010.56 1010.72 1010.84 1011.00 1011.12 1011.28 1011.36 1011.48 1011.56 1011.68 1011.80 1011.84 1011.92 1012.04 1012.12 1012.20 1012.28 1012.44 1012.60 1012.72 1012.88 1013.04 1013.12 1013.24 1013.36 1013.44 1013.56 1013.64 1013.68 1013.72 1013.80 1013.88 1013.96 1014.04
1005.12 1005.32 1005.52 1005.72 1005.92 1006.12 1006.28 1006.40 1006.52 1006.64 1006.76 1006.92 1007.04 1007.20 1007.40 1007.56 1007.72 1007.84 1008.00 1008.12 1008.28 1008.40 1008.56 1008.72 1008.84 1009.00 1009.16 1009.36 1009.56 1009.68 1009.84 1010.00 1010.16 1010.32 1010.44 1010.60 1010.72 1010.84 1011.00 1011.08 1011.20 1011.32 1011.40 1011.52 1011.60 1011.68 1011.76 1011.84 1011.92 1012.00 1012.12 1012.28 1012.40 1012.56 1012.72 1012.88 1013.00 1013.16 1013.28 1013.44 1013.60 1013.72 1013.84 1013.88 1013.96 1014.00 1014.04 1014.12 1014.20
1005.28 1005.48 1005.64 1005.80 1005.96 1006.12 1006.28 1006.40 1006.56 1006.72 1006.84 1007.00 1007.16 1007.32 1007.52 1007.68 1007.84 1008.00 1008.12 1008.24 1008.40 1008.52 1008.64 1008.76 1008.92 1009.08 1009.24 1009.40 1009.56 1009.72 1009.92 1010.08 1010.28 1010.40 1010.56 1010.68 1010.84 1010.96 1011.00 1011.12 1011.24 1011.36 1011.44 1011.56 1011.56 1011.64 1011.72 1011.84 1011.92 1012.00 1012.12 1012.28 1012.40 1012.56 1012.72 1012.84 1013.00 1013.16 1013.40 1013.56 1013.72 1013.88 1014.00 1014.08 1014.12 1014.20 1014.24 1014.28 1014.36
1005.40 1005.56 1005.72 1005.88 1006.04 1006.20 1006.36 1006.52 1006.68 1006.84 1007.00 1007.20 1007.40 1007.56 1007.68 1007.84 1008.00 1008.12 1008.24 1008.36 1008.48 1008.60 1008.76 1008.88 1009.04 1009.16 1009.32 1009.44 1009.60 1009.76 1009.96 1010.12 1010.28 1010.48 1010.64 1010.80 1010.88 1011.00 1011.12 1011.20 1011.32 1011.44 1011.52 1011.56 1011.60 1011.68 1011.72 1011.80 1011.96 1012.04 1012.12 1012.28 1012.40 1012.60 1012.72 1012.84 1013.04 1013.24 1013.44 1013.68 1013.84 1014.00 1014.12 1014.20 1014.28 1014.36 1014.40 1014.52 1014.56
1005.56 1005.68 1005.88 1006.04 1006.20 1006.36 1006.52 1006.64 1006.84 1007.00 1007.20 1007.40 1007.56 1007.68 1007.84 1007.96 1008.08 1008.24 1008.36 1008.48 1008.64 1008.76 1008.92 1009.08 1009.24 1009.32 1009.44 1009.56 1009.68 1009.84 1010.00 1010.16 1010.32 1010.52 1010.72 1010.84 1010.96 1011.08 1011.20 1011.32 1011.40 1011.52 1011.56 1011.64 1011.64 1011.68 1011.68 1011.76 1011.92 1012.04 1012.12 1012.28 1012.48 1012.68 1012.84 1013.00 1013.16 1013.36 1013.52 1013.72 1013.92 1014.08 1014.24 1014.40 1014.52 1014.60 1014.64 1014.72 1014.76
1005.68 1005.88 1006.08 1006.20 1006.36 1006.52 1006.72 1006.84 1007.04 1007.20 1007.36 1007.52 1007.68 1007.76 1007.88 1008.04 1008.16 1008.28 1008.44 1008.64 1008.80 1008.92 1009.04 1009.20 1009.36 1009.48 1009.60 1009.72 1009.84 1009.96 1010.12 1010.28 1010.44 1010.60 1010.72 1010.92 1011.08 1011.20 1011.32 1011.44 1011.56 1011.60 1011.68 1011.68 1011.68 1011.68 1011.72 1011.80 1011.88 1012.04 1012.16 1012.36 1012.56 1012.80 1013.00 1013.20 1013.40 1013.52 1013.68 1013.84 1014.04 1014.20 1014.36 1014.56 1014.68 1014.80 1014.84 1014.88 1015.00
1005.96 1006.12 1006.28 1006.44 1006.56 1006.72 1006.88 1007.04 1007.20 1007.32 1007.44 1007.56 1007.68 1007.84 1008.00 1008.12 1008.24 1008.40 1008.60 1008.80 1008.92 1009.04 1009.16 1009.32 1009.44 1009.56 1009.68 1009.88 1010.00 1010.12 1010.28 1010.48 1010.60 1010.72 1010.84 1011.00 1011.16 1011.32 1011.44 1011.56 1011.64 1011.68 1011.76 1011.80 1011.80 1011.80 1011.84 1011.96 1012.04 1012.16 1012.28 1012.48 1012.68 1012.92 1013.16 1013.40 1013.60 1013.72 1013.88 1014.04 1014.20 1014.36 1014.48 1014.68 1014.80 1014.92 1015.00 1015.12 1015.12
1006.20 1006.36 1006.52 1006.64 1006.80 1006.96 1007.12 1007.24 1007.32 1007.40 1007.56 1007.68 1007.80 1007.92 1008.04 1008.20 1008.40 1008.56 1008.76 1008.92 1009.04 1009.20 1009.36 1009.52 1009.64 1009.72 1009.88 1010.12 1010.28 1010.40 1010.52 1010.72 1010.84 1010.96 1011.04 1011.20 1011.32 1011.44 1011.56 1011.68 1011.80 1011.88 1011.92 1011.96 1011.96 1012.00 1012.08 1012.16 1012.28 1012.40 1012.56 1012.72 1012.92 1013.12 1013.36 1013.56 1013.80 1013.96 1014.12 1014.28 1014.40 1014.56 1014.64 1014.76 1014.88 1015.00 1015.08 1015.20 1015.28
1006.40 1006.52 1006.68 1006.80 1007.00 1007.12 1007.28 1007.40 1007.44 1007.56 1007.64 1007.76 1007.92 1008.04 1008.20 1008.36 1008.56 1008.72 1008.92 1009.04 1009.16 1009.36 1009.56 1009.68 1009.84 1009.96 1010.12 1010.32 1010.48 1010.64 1010.76 1010.88 1011.00 1011.12 1011.24 1011.36 1011.52 1011.64 1011.76 1011.84 1011.96 1012.04 1012.08 1012.12 1012.12 1012.24 1012.32 1012.40 1012.56 1012.72 1012.84 1013.00 1013.16 1013.36 1013.56 1013.80 1014.00 1014.16 1014.36 1014.48 1014.64 1014.76 1014.84 1014.96 1015.00 1015.12 1015.24 1015.32 1015.40
1006.56 1006.68 1006.84 1007.00 1007.16 1007.32 1007.48 1007.56 1007.56 1007.60 1007.68 1007.84 1008.00 1008.16 1008.36 1008.56 1008.72 1008.92 1009.08 1009.20 1009.40 1009.56 1009.68 1009.80 1009.96 1010.16 1010.40 1010.56 1010.72 1010.84 1011.00 1011.12 1011.20 1011.28 1011.40 1011.52 1011.68 1011.80 1011.92 1012.00 1012.12 1012.24 1012.28 1012.28 1012.36 1012.44 1012.56 1012.68 1012.84 1012.96 1013.12 1013.24 1013.40 1013.60 1013.84 1014.00 1014.20 1014.40 1014.56 1014.72 1014.84 1014.96 1015.04 1015.12 1015.24 1015.32 1015.40 1015.44 1015.56
1006.80 1006.92 1007.00 1007.12 1007.28 1007.48 1007.68 1007.84 1007.80 1007.80 1007.84 1008.04 1008.24 1008.40 1008.60 1008.84 1009.00 1009.16 1009.28 1009.44 1009.64 1009.80 1009.96 1010.04 1010.20 1010.40 1010.64 1010.80 1010.88 1011.04 1011.20 1011.32 1011.40 1011.44 1011.56 1011.68 1011.84 1012.00 1012.12 1012.24 1012.32 1012.44 1012.52 1012.56 1012.60 1012.72 1012.84 1012.96 1013.08 1013.24 1013.36 1013.52 1013.68 1013.84 1014.08 1014.28 1014.44 1014.64 1014.84 1015.00 1015.08 1015.20 1015.28 1015.36 1015.44 1015.56 1015.60 1015.64 1015.68
1007.00 1007.04 1007.12 1007.28 1007.48 1007.72 1007.92 1008.08 1008.12 1008.12 1008.16 1008.32 1008.52 1008.72 1008.92 1009.12 1009.28 1009.44 1009.60 1009.72 1009.88 1010.04 1010.16 1010.28 1010.44 1010.64 1010.84 1011.04 1011.12 1011.24 1011.36 1011.48 1011.56 1011.68 1011.76 1011.88 1012.00 1012.16 1012.28 1012.40 1012.56 1012.68 1012.76 1012.80 1012.84 1012.96 1013.12 1013.24 1013.36 1013.48 1013.64 1013.80 1014.00 1014.20 1014.40 1014.56 1014.72 1014.92 1015.08 1015.20 1015.28 1015.40 1015.48 1015.56 1015.64 1015.68 1015.76 1015.80 1015.80
1007.12 1007.20 1007.32 1007.56 1007.84 1008.04 1008.20 1008.28 1008.36 1008.40 1008.48 1008.60 1008.80 1009.00 1009.24 1009.40 1009.56 1009.68 1009.84 1010.00 1010.12 1010.28 1010.40 1010.56 1010.72 1010.92 1011.12 1011.28 1011.36 1011.44 1011.56 1011.68 1011.76 1011.84 1011.96 1012.00 1012.12 1012.28 1012.44 1012.64 1012.80 1012.92 1013.00 1013.04 1013.12 1013.28 1013.40 1013.48 1013.64 1013.76 1013.92 1014.04 1014.28 1014.44 1014.64 1014.76 1014.96 1015.12 1015.28 1015.40 1015.52 1015.60 1015.68 1015.72 1015.84 1015.88 1015.92 1015.92 1015.96
1007.36 1007.48 1007.68 1007.88 1008.12 1008.32 1008.44 1008.52 1008.56 1008.60 1008.72 1008.88 1009.08 1009.28 1009.40 1009.56 1009.76 1009.92 1010.08 1010.24 1010.40 1010.56 1010.72 1010.84 1011.00 1011.12 1011.28 1011.40 1011.48 1011.60 1011.72 1011.84 1011.96 1012.04 1012.12 1012.24 1012.36 1012.52 1012.72 1012.88 1013.08 1013.20 1013.28 1013.32 1013.40 1013.52 1013.64 1013.76 1013.84 1014.00 1014.12 1014.28 1014.48 1014.72 1014.84 1015.00 1015.16 1015.32 1015.48 1015.60 1015.72 1015.84 1015.88 1015.92 1016.00 1016.04 1016.04 1016.04 1016.04
1007.72 1007.84 1008.04 1008.24 1008.40 1008.56 1008.68 1008.72 1008.76 1008.84 1009.00 1009.20 1009.40 1009.56 1009.72 1009.88 1010.04 1010.20 1010.40 1010.56 1010.68 1010.84 1011.00 1011.12 1011.28 1011.40 1011.52 1011.56 1011.68 1011.76 1011.88 1012.00 1012.12 1012.24 1012.36 1012.44 1012.56 1012.76 1012.96 1013.16 1013.40 1013.48 1013.56 1013.56 1013.68 1013.76 1013.84 1014.00 1014.12 1014.24 1014.36 1014.48 1014.68 1014.88 1015.04 1015.20 1015.36 1015.52 1015.64 1015.76 1015.88 1016.00 1016.04 1016.12 1016.16 1016.20 1016.20 1016.16 1016.12
1008.08 1008.20 1008.36 1008.52 1008.68 1008.76 1008.84 1008.92 1009.00 1009.16 1009.32 1009.56 1009.68 1009.84 1010.04 1010.24 1010.40 1010.52 1010.68 1010.76 1010.88 1011.08 1011.28 1011.40 1011.52 1011.60 1011.68 1011.80 1011.88 1012.00 1012.12 1012.20 1012.36 1012.48 1012.60 1012.72 1012.84 1013.00 1013.24 1013.40 1013.60 1013.72 1013.80 1013.84 1013.92 1014.00 1014.08 1014.20 1014.32 1014.40 1014.52 1014.68 1014.84 1015.04 1015.20 1015.40 1015.56 1015.68 1015.84 1015.88 1016.00 1016.12 1016.16 1016.20 1016.24 1016.28 1016.32 1016.28 1016.24
1008.48 1008.56 1008.60 1008.76 1008.88 1009.00 1009.12 1009.20 1009.32 1009.48 1009.68 1009.84 1010.00 1010.16 1010.36 1010.52 1010.68 1010.84 1010.92 1011.00 1011.12 1011.28 1011.48 1011.60 1011.68 1011.84 1011.96 1012.04 1012.20 1012.32 1012.40 1012.48 1012.60 1012.72 1012.88 1013.00 1013.12 1013.28 1013.44 1013.64 1013.80 1013.92 1014.00 1014.00 1014.08 1014.16 1014.28 1014.40 1014.48 1014.56 1014.72 1014.84 1015.04 1015.20 1015.40 1015.56 1015.72 1015.84 1016.00 1016.08 1016.20 1016.28 1016.28 1016.28 1016.28 1016.28 1016.28 1016.28 1016.24
1008.80 1008.84 1008.92 1009.00 1009.12 1009.28 1009.36 1009.48 1009.60 1009.76 1009.96 1010.12 1010.32 1010.44 1010.60 1010.76 1010.96 1011.12 1011.20 1011.24 1011.32 1011.52 1011.68 1011.84 1012.00 1012.12 1012.28 1012.36 1012.48 1012.60 1012.72 1012.76 1012.88 1013.00 1013.16 1013.28 1013.40 1013.52 1013.64 1013.80 1013.96 1014.08 1014.16 1014.20 1014.28 1014.36 1014.40 1014.56 1014.68 1014.80 1014.92 1015.04 1015.24 1015.40 1015.56 1015.68 1015.84 1016.00 1016.12 1016.20 1016.32 1016.40 1016.44 1016.40 1016.40 1016.32 1016.28 1016.24 1016.08
1009.12 1009.16 1009.24 1009.28 1009.40 1009.52 1009.64 1009.76 1009.92 1010.08 1010.28 1010.40 1010.60 1010.76 1010.88 1011.04 1011.24 1011.40 1011.52 1011.56 1011.60 1011.72 1011.92 1012.12 1012.28 1012.40 1012.52 1012.56 1012.68 1012.84 1013.00 1013.08 1013.20 1013.28 1013.40 1013.56 1013.64 1013.72 1013.84 1013.96 1014.12 1014.24 1014.32 1014.40 1014.48 1014.56 1014.64 1014.76 1014.84 1015.00 1015.12 1015.28 1015.40 1015.56 1015.68 1015.80 1015.96 1016.08 1016.20 1016.28 1016.40 1016.52 1016.56 1016.52 1016.48 1016.40 1016.40 1016.28 1016.12
1009.40 1009.44 1009.52 1009.56 1009.68 1009.80 1009.92 1010.08 1010.24 1010.40 1010.56 1010.72 1010.84 1011.04 1011.16 1011.32 1011.52 1011.68 1011.80 1011.84 1011.96 1012.00 1012.12 1012.32 1012.52 1012.68 1012.76 1012.80 1012.88 1013.04 1013.24 1013.36 1013.48 1013.56 1013.68 1013.80 1013.84 1013.96 1014.00 1014.12 1014.28 1014.40 1014.52 1014.60 1014.72 1014.76 1014.84 1014.96 1015.08 1015.16 1015.32 1015.52 1015.60 1015.68 1015.80 1015.88 1016.00 1016.12 1016.28 1016.40 1016.44 1016.52 1016.56 1016.56 1016.52 1016.48 1016.40 1016.36 1016.20
1009.72 1009.76 1009.80 1009.88 1010.00 1010.08 1010.16 1010.36 1010.56 1010.72 1010.84 1010.96 1011.12 1011.28 1011.44 1011.60 1011.72 1011.84 1012.00 1012.08 1012.16 1012.28 1012.40 1012.56 1012.72 1012.84 1012.96 1013.04 1013.12 1013.28 1013.44 1013.64 1013.76 1013.88 1013.96 1014.04 1014.12 1014.20 1014.28 1014.32 1014.48 1014.56 1014.72 1014.80 1014.88 1014.96 1015.00 1015.12 1015.24 1015.36 1015.48 1015.64 1015.72 1015.84 1015.88 1015.96 1016.04 1016.20 1016.36 1016.44 1016.52 1016.56 1016.56 1016.56 1016.56 1016.44 1016.40 1016.32 1016.20
Wind_Speed
8 8 7 6 6 6 6 5 5 5 5 5 5 6 6 6 6 6 5 5 6 5 5 5 6 6 7 10 11 10 9 8 9 9 9 9 8 8 8 8 7 7 7 7 7 6 6 6 5 4 4 4 4 4 3 3 4 4 4 4 4 4 4 5 5 6 6 6 5
10 9 7 6 6 5 5 5 5 5 5 4 5 6 6 6 6 6 5 5 5 5 5 5 5 7 8 10 11 10 10 9 10 10 9 9 9 8 8 7 8 8 8 8 7 6 6 6 5 4 4 3 4 4 3 3 4 5 5 5 4 4 4 4 5 6 6 6 4
10 9 8 7 6 6 5 5 5 6 5 4 4 5 6 6 6 5 5 5 5 5 5 5 6 7 9 10 10 9 9 9 10 10 9 9 8 8 8 7 8 8 8 8 7 7 6 6 5 5 4 4 4 4 4 3 4 4 5 6 4 3 3 4 5 5 4 4 4
10 10 9 8 8 7 6 5 6 6 6 5 4 5 6 6 5 4 4 4 5 5 5 6 6 7 8 9 9 9 9 9 10 10 9 8 8 8 8 8 8 8 7 7 7 7 7 7 5 4 4 4 5 5 4 4 4 4 4 4 3 3 4 4 4 3 3 3 3
9 9 9 8 9 8 7 6 7 7 6 5 5 5 5 5 4 4 4 5 5 5 6 7 7 7 7 9 9 9 9 9 9 9 8 8 8 8 8 8 8 8 7 7 7 7 7 7 5 4 4 4 4 4 4 4 5 4 3 3 3 3 3 4 3 3 3 3 2
8 9 9 9 9 9 7 6 7 7 6 5 5 5 5 4 4 5 5 5 5 7 8 8 8 7 8 8 9 9 9 8 8 8 8 8 8 8 8 8 8 7 7 7 7 7 7 7 4 3 3 3 3 3 3 5 5 4 3 2 3 3 3 3 3 3 2 3 3
9 9 10 9 10 9 8 7 7 7 6 5 6 7 7 5 6 6 6 6 6 7 7 7 8 8 8 8 8 8 8 8 7 7 8 8 7 7 8 8 7 7 7 7 7 7 6 6 4 4 3 3 2 2 3 4 4 4 4 3 3 3 3 3 3 2 3 4 4
8 9 9 10 10 9 9 8 8 7 6 5 7 8 8 6 6 6 6 7 6 6 6 6 8 8 9 8 8 8 8 8 7 7 7 7 7 7 7 7 7 7 7 7 7 7 6 5 4 4 4 3 3 3 3 4 4 4 4 4 3 3 3 3 3 3 4 5 5
6 7 8 9 9 9 9 9 9 8 7 7 8 8 8 6 6 7 7 7 6 6 6 6 8 9 9 9 9 8 8 8 8 7 7 7 7 7 7 6 6 6 6 6 6 7 6 5 4 4 3 3 3 3 4 5 5 5 5 5 3 3 2 2 3 4 4 5 6
6 7 8 8 9 9 9 9 9 9 9 8 8 8 7 6 6 7 7 6 6 6 7 7 8 8 9 9 8 8 8 7 7 7 7 7 7 7 7 6 7 6 6 5 6 6 6 5 4 4 4 4 4 4 5 5 6 6 5 4 3 3 3 3 3 4 5 6 7
7 7 8 8 8 9 9 9 8 8 8 8 8 7 7 6 6 6 6 6 7 7 7 7 8 9 8 8 8 7 7 7 7 7 7 7 7 8 7 7 7 7 7 6 5 5 5 4 4 5 4 4 4 4 5 5 6 6 5 4 4 4 4 4 4 5 5 6 7
7 8 8 8 9 9 9 9 7 7 8 8 8 7 7 6 6 6 7 7 8 7 7 7 8 9 8 7 7 7 7 7 7 7 7 7 7 7 7 7 7 7 7 6 6 5 5 5 5 5 5 5 4 4 5 5 5 5 5 5 5 5 5 6 6 6 6 6 7
8 8 8 9 9 9 9 9 7 7 7 8 8 7 7 5 6 7 7 8 8 7 6 7 7 8 7 7 7 7 7 7 7 7 7 7 7 7 7 7 7 7 6 6 6 5 5 5 6 6 6 6 5 5 5 5 6 6 6 6 6 6 7 8 8 7 6 5 6
8 9 9 9 10 10 9 8 7 7 7 8 8 7 6 5 6 6 7 8 8 7 6 6 6 6 6 7 7 7 7 7 7 7 7 7 7 7 7 6 6 6 6 5 6 6 6 6 7 7 7 7 6 5 5 6 6 6 7 7 7 8 8 9 8 7 5 4 5
9 9 9 9 10 9 8 8 6 6 7 7 7 7 6 5 5 6 6 7 7 7 6 6 5 5 5 7 7 7 7 7 7 7 7 7 6 6 6 6 6 6 6 5 6 6 7 7 7 7 7 7 7 6 6 6 7 7 7 8 8 8 9 8 7 5 4 4 5
9 10 9 9 10 9 8 7 6 6 6 6 7 7 6 5 5 5 6 7 6 6 6 6 5 5 5 6 7 7 7 7 7 7 7 6 6 6 6 6 6 6 6 6 6 6 6 7 7 7 7 7 7 7 7 7 7 8 8 8 8 8 8 7 5 4 4 4 5
10 10 10 10 10 9 8 7 6 6 6 7 7 7 6 6 5 5 6 7 6 6 6 6 6 5 5 5 6 6 6 6 6 6 6 6 6 6 6 6 6 6 6 6 6 6 6 6 6 6 7 7 7 7 7 8 8 8 8 8 8 7 6 5 4 3 4 4 5
10 10 10 11 10 10 9 8 7 7 7 7 7 6 6 6 6 6 6 6 7 7 7 7 6 6 6 6 5 5 5 6 6 6 6 6 6 6 6 5 5 5 5 6 6 6 6 6 6 6 6 6 6 6 7 7 7 7 7 6 6 5 4 4 4 4 4 5 5
11 11 11 11 11 10 9 8 8 8 8 7 7 6 6 7 7 7 6 6 7 8 8 8 6 6 6 7 6 5 5 5 5 5 5 4 4 4 4 4 4 5 5 5 5 6 6 6 6 6 6 6 6 6 6 6 5 5 5 4 4 4 4 4 4 3 3 3 2
12 12 12 11 11 10 9 8 8 8 7 7 7 7 7 7 7 7 7 7 7 8 8 8 7 6 6 6 6 5 5 4 4 4 4 4 4 4 4 4 5 5 5 5 5 5 6 6 6 6 6 6 6 5 5 4 4 4 3 3 2 1 1 1 1 1 2 3 4
12 11 11 10 9 8 8 7 7 7 7 7 7 7 8 7 7 7 7 7 7 7 7 7 7 7 6 6 6 5 4 3 4 4 4 4 4 4 4 5 5 5 5 5 5 6 6 6 6 7 6 6 5 5 4 3 3 2 2 2 3 3 4 5 5 6 6 7 7
11 9 8 7 6 6 6 6 6 6 7 7 7 7 7 7 6 6 6 6 6 6 6 6 6 6 6 6 6 5 5 4 4 5 4 4 4 4 4 4 4 4 4 5 5 6 6 6 6 5 5 4 4 3 3 3 3 4 4 5 6 6 7 7 7 7 7 7 7
8 7 6 5 5 6 6 6 6 6 7 7 7 7 6 6 6 6 6 5 5 5 5 5 5 5 5 6 6 6 6 6 6 6 5 5 5 5 4 4 4 3 3 3 3 4 4 4 4 3 3 3 3 3 3 4 4 5 6 6 7 7 7 7 7 7 7 7 7
7 6 6 5 6 6 6 6 6 7 7 7 7 6 6 6 6 6 6 6 6 6 6 5 5 5 6 6 7 7 8 8 8 7 7 6 6 5 5 5 4 3 2 2 1 2 3 3 3 3 3 3 3 3 4 4 5 6 6 7 7 7 7 8 7 7 7 7 7
8 7 7 6 6 7 7 7 7 7 7 7 7 7 7 7 7 7 7 7 7 7 8 7 7 6 6 7 7 8 8 9 9 8 8 7 7 6 5 5 4 3 3 2 3 4 4 4 3 3 4 4 5 5 5 6 6 7 7 8 8 8 8 8 7 7 7 7 6
8 8 7 7 7 7 7 7 7 7 7 7 7 7 7 7 7 8 8 9 8 8 8 8 8 7 7 7 8 8 8 8 8 8 8 8 7 7 6 5 4 4 4 4 6 8 8 8 6 6 5 5 6 6 6 6 7 7 8 8 7 7 7 7 7 7 7 6 7
9 8 8 7 8 7 7 7 7 7 7 7 8 8 8 7 8 8 9 9 9 9 8 8 8 7 7 7 8 8 8 7 7 8 8 8 8 7 6 5 5 4 5 8 10 11 12 12 11 9 8 6 7 7 7 7 7 7 7 7 7 7 7 7 7 7 6 6 6
9 9 8 9 8 8 7 7 7 8 8 8 8 8 8 9 9 9 9 9 9 9 8 7 7 6 6 7 8 9 8 8 7 7 8 8 8 7 7 6 5 6 8 11 13 14 14 14 14 12 11 8 8 7 8 7 7 7 7 6 6 6 6 6 6 6 6 6 6
10 9 10 10 9 8 8 8 8 9 9 9 9 9 9 10 10 9 9 9 9 8 7 6 5 6 6 7 8 9 9 8 7 7 8 8 8 8 7 7 7 9 11 14 15 16 16 16 15 14 13 10 8 6 6 6 6 6 6 6 6 6 6 5 5 5 6 6 5
9 10 10 10 10 9 8 8 8 9 9 9 10 10 10 10 10 10 9 9 9 8 7 6 7 8 8 8 8 8 8 7 7 7 8 9 9 9 8 8 8 9 11 14 16 16 16 16 16 15 14 12 10 7 6 6 6 6 6 6 6 6 6 6 6 6 5 5 5
9 10 10 10 10 10 9 8 8 9 9 10 10 11 11 10 10 9 9 9 9 9 9 10 11 11 10 9 8 8 8 7 7 8 9 10 10 10 9 10 9 10 11 14 16 16 16 16 16 16 15 14 10 8 7 7 7 7 6 6 7 7 7 6 6 6 6 5 5
10 10 11 11 11 10 9 8 8 9 10 11 11 11 11 11 10 9 9 9 9 10 10 11 12 11 11 10 9 9 9 8 8 8 9 10 10 10 10 10 10 10 12 15 16 16 17 17 17 16 16 14 12 10 9 8 8 8 7 8 8 8 7 6 6 6 6 5 5
10 11 12 12 11 10 9 8 9 10 11 11 11 11 11 11 10 10 9 9 9 10 10 11 11 11 10 10 9 9 9 9 9 9 10 10 10 11 10 10 9 10 13 16 16 17 17 17 17 17 16 15 12 10 9 9 8 7 7 8 8 7 7 6 6 5 5 5 5
11 11 11 11 10 10 9 9 10 11 12 12 12 11 11 11 11 10 10 9 9 9 10 10 10 10 10 9 9 9 9 9 9 10 10 11 11 11 10 9 8 10 13 16 17 17 17 17 17 17 16 14 11 9 9 9 8 8 8 8 7 7 6 6 5 4 4 4 4
10 11 11 10 10 9 10 10 11 12 12 12 12 11 11 11 11 11 10 10 10 10 10 10 9 9 9 9 10 10 10 10 10 10 11 11 11 12 11 10 9 11 14 16 16 16 16 16 16 16 14 12 9 8 8 9 8 8 8 8 7 6 6 5 4 3 2 2 2
10 10 10 10 10 10 10 11 11 12 12 12 12 11 11 11 10 10 10 10 10 10 10 10 9 10 10 10 10 10 10 10 10 11 11 11 12 12 11 10 10 11 14 15 15 15 15 15 15 14 13 10 8 7 7 7 7 7 8 8 7 6 5 4 3 2 2 1 1
9 9 10 10 10 10 10 11 11 12 12 12 11 11 11 11 10 9 9 9 11 11 11 10 10 10 10 10 10 10 10 10 11 11 11 11 11 11 11 10 10 11 12 14 15 15 15 14 14 13 11 8 7 6 6 6 6 6 7 7 7 6 5 4 4 3 2 1 1
8 9 9 10 10 10 11 11 11 12 12 11 11 10 10 10 9 8 8 9 10 11 11 10 10 10 10 10 10 10 10 10 11 11 11 10 10 10 10 10 10 10 11 13 14 14 14 14 13 12 10 7 6 6 5 5 6 6 6 6 5 4 4 3 3 3 3 2 2
8 9 9 10 11 11 11 11 12 12 11 11 10 10 10 9 8 8 8 8 10 10 11 11 10 10 10 10 10 11 11 11 11 10 10 10 10 10 10 10 10 10 11 13 14 14 14 13 13 12 10 8 6 5 5 5 6 6 6 5 4 4 3 2 2 2 3 3 4
8 9 9 10 11 11 11 12 11 11 10 11 11 10 10 9 9 8 8 8 9 10 11 11 10 10 10 10 11 11 11 11 10 10 10 10 10 11 11 10 10 10 11 13 14 14 14 13 13 12 10 7 5 5 4 5 6 6 5 4 4 3 3 2 2 2 3 3 4
8 9 9 10 10 11 11 11 11 10 10 10 10 10 9 9 9 9 8 8 9 9 10 10 10 10 10 10 10 11 12 12 11 10 10 10 10 10 10 9 9 9 10 11 13 13 13 13 13 11 10 7 5 4 4 4 5 6 5 4 3 3 3 2 2 3 3 3 3
Wind_Direction
176 178 179 179 178 179 182 184 177 171 167 164 162 161 162 165 169 171 173 176 176 174 170 160 153 146 143 146 155 159 161 157 158 162 166 167 168 166 164 162 160 158 155 153 154 156 160 163 160 160 163 169 171 174 174 169 167 170 177 187 193 191 188 189 199 203 205 208 210
175 176 174 172 171 174 177 178 172 167 163 162 161 160 162 166 170 171 172 178 173 166 157 146 137 136 140 147 154 158 159 157 159 162 165 167 167 164 161 161 161 160 158 155 155 158 161 163 161 162 163 163 164 169 172 168 162 166 176 190 192 189 186 194 206 208 207 208 211
173 172 169 166 169 173 177 174 168 163 160 157 158 159 163 170 175 174 171 172 160 152 145 137 133 136 141 147 153 157 159 159 160 163 165 168 166 164 161 160 160 160 159 158 159 160 162 164 165 166 166 165 167 171 173 170 164 169 179 191 190 185 187 202 210 210 208 209 209
169 168 166 166 173 178 179 171 164 160 157 154 153 156 162 171 174 170 161 156 147 143 140 136 135 138 143 147 152 156 159 161 161 162 164 166 165 164 162 159 159 160 161 159 159 158 158 161 166 169 168 166 170 175 177 169 168 174 182 188 182 182 191 207 208 205 201 205 205
171 167 167 170 177 180 178 167 160 157 155 151 152 156 163 171 167 158 151 151 147 141 135 133 135 140 144 147 150 153 156 159 161 162 163 163 163 163 162 159 160 161 161 159 159 158 157 158 164 170 171 170 176 179 175 160 166 174 181 180 180 185 194 205 205 197 191 196 200
180 174 169 170 177 180 178 163 156 153 152 151 153 157 162 171 169 163 155 150 139 131 128 130 133 137 140 144 148 151 154 158 162 161 160 160 160 160 160 161 161 160 159 159 158 156 155 158 164 171 174 173 178 173 160 149 161 171 181 189 192 192 193 201 199 192 187 196 205
179 175 169 167 173 175 170 157 151 148 147 149 155 160 164 170 171 164 152 139 130 128 130 134 137 140 142 145 149 152 155 159 159 158 157 157 158 159 161 163 161 160 159 159 157 156 157 159 165 173 177 177 179 167 154 148 160 172 187 203 203 196 192 200 198 191 192 202 211
170 166 162 162 166 166 162 153 148 146 146 152 158 163 165 168 165 155 142 131 132 135 138 139 142 145 147 149 152 154 155 156 157 157 156 154 155 158 160 160 159 161 162 160 159 159 161 163 171 176 178 180 183 177 166 158 166 180 195 209 211 203 193 198 198 196 199 206 214
165 160 156 157 161 161 158 152 148 146 148 153 157 161 164 166 157 146 137 134 137 138 139 140 144 146 148 151 153 155 156 156 157 156 155 153 155 157 158 158 161 164 165 162 161 162 163 167 176 180 182 184 189 186 177 167 177 189 201 211 215 213 206 200 198 199 204 209 220
168 161 156 156 159 158 156 152 150 147 146 146 152 159 165 168 155 146 139 137 136 137 139 143 145 147 149 152 154 156 156 156 156 155 155 155 156 158 160 163 166 168 168 167 163 162 162 168 178 185 188 188 191 188 183 175 184 195 205 215 216 218 219 215 204 203 209 216 225
171 165 159 157 158 157 156 155 153 148 143 140 148 158 168 169 154 144 137 132 135 139 143 145 147 150 152 155 156 157 157 156 156 156 157 159 161 163 165 167 169 171 171 169 164 162 164 172 181 189 195 197 193 189 184 180 187 197 208 219 217 220 224 226 215 212 215 222 229
173 168 162 159 159 159 160 161 153 145 140 139 149 160 168 165 151 140 134 133 138 142 145 147 150 152 154 156 157 156 155 155 155 156 159 163 164 166 167 169 170 171 170 168 164 163 167 177 184 191 197 201 197 191 186 183 188 198 210 220 218 222 227 232 226 222 222 223 228
174 169 165 161 161 161 162 161 151 142 139 143 152 160 164 158 147 140 138 139 142 143 144 147 150 152 153 155 155 156 156 156 156 158 162 165 166 166 168 169 170 170 169 168 167 168 172 181 187 192 197 201 200 195 188 182 188 198 209 219 222 226 230 234 232 229 226 224 230
173 170 166 162 162 161 159 156 149 144 142 145 152 157 159 153 147 143 142 141 141 140 141 144 148 151 152 153 154 155 156 156 156 158 161 165 166 167 168 170 170 170 169 169 171 174 178 184 190 193 197 200 201 197 191 186 194 202 210 217 222 227 232 235 234 233 230 227 234
173 170 165 160 159 158 155 151 148 145 143 145 152 156 157 151 147 143 139 137 136 136 137 141 144 146 147 149 152 153 154 154 155 158 161 164 166 168 170 171 171 171 171 172 176 180 184 188 191 193 196 199 202 201 198 196 203 209 215 220 223 227 231 235 236 234 231 228 233
175 170 164 156 154 152 149 147 143 141 141 145 156 158 154 148 142 136 133 132 132 133 136 142 143 143 142 145 148 149 150 152 154 158 162 166 170 173 174 175 174 174 175 176 181 187 191 192 193 195 197 202 206 206 205 205 210 215 220 223 226 230 233 237 236 233 227 223 228
175 169 160 151 148 146 143 138 133 135 143 154 159 156 148 142 138 135 134 135 136 138 141 146 145 144 143 145 147 148 150 152 156 161 167 172 174 177 178 179 178 177 177 179 184 191 197 200 200 201 203 207 209 210 210 209 213 218 222 226 229 234 239 244 242 236 230 226 231
165 156 148 144 144 142 138 132 131 139 151 161 158 151 143 139 138 138 138 140 142 144 146 148 146 145 145 146 148 150 152 156 162 168 173 175 175 176 177 177 174 173 175 180 188 194 198 201 204 207 210 212 213 212 212 212 217 221 225 229 234 239 245 251 250 246 241 238 240
146 141 139 141 142 141 139 136 140 149 156 159 151 144 139 138 140 141 143 145 147 148 148 147 146 146 146 147 149 152 155 159 163 167 169 167 166 165 166 165 164 166 171 179 189 194 197 198 202 207 211 215 216 216 214 213 217 222 227 231 235 241 247 252 250 248 245 243 249
134 135 139 142 143 143 143 145 149 152 152 149 142 138 138 139 142 144 147 150 149 148 147 146 146 147 147 148 150 153 155 154 154 153 151 148 150 153 156 157 159 164 170 177 187 194 198 199 202 206 210 214 217 217 214 210 210 214 219 224 228 241 265 294 359 51 63 67 63
133 137 141 142 142 143 144 146 145 143 141 137 136 136 138 140 144 148 149 148 146 145 145 146 146 148 148 149 149 147 144 135 134 134 135 136 141 146 151 155 162 167 172 178 186 193 199 203 205 208 210 213 214 212 207 197 190 174 144 106 85 72 64 62 65 68 71 73 72
135 137 137 135 135 135 134 132 130 130 130 130 131 132 134 137 140 141 139 137 136 137 138 139 141 143 144 143 138 131 123 114 117 119 122 124 127 130 136 144 154 163 171 179 187 193 199 205 207 207 207 208 205 200 189 177 157 132 110 94 84 77 72 71 71 73 74 74 73
127 125 120 117 119 120 120 119 119 120 121 122 122 122 122 121 119 118 118 119 120 119 118 118 119 122 124 125 121 117 113 109 109 109 108 107 106 107 109 114 121 129 142 163 180 190 196 201 200 196 189 182 177 168 159 151 137 122 109 99 90 83 77 73 72 71 70 69 68
110 107 105 105 110 113 114 114 115 115 116 116 115 113 110 106 103 102 102 101 98 96 94 93 94 97 102 107 110 111 111 110 109 107 104 100 98 96 95 91 89 87 86 89 121 155 168 176 169 156 143 137 131 124 118 114 112 109 106 101 95 89 82 76 72 70 68 66 65
100 100 99 100 104 107 109 109 110 112 114 115 114 112 109 105 101 98 95 93 90 90 91 93 94 96 98 100 103 104 105 107 108 107 103 98 93 90 87 84 80 74 68 65 78 97 113 123 125 124 120 114 106 100 95 92 98 102 104 104 101 97 91 84 77 72 69 66 65
97 97 97 96 98 100 102 104 106 108 110 111 110 109 107 105 101 97 95 93 92 93 95 97 100 101 101 100 97 96 95 98 101 102 101 98 91 87 83 80 76 72 70 70 79 85 91 95 98 103 107 108 104 99 95 91 92 94 97 99 100 100 98 93 85 78 73 68 65
96 96 96 94 94 96 99 102 104 105 104 104 104 104 104 103 100 97 96 95 94 93 93 93 95 96 96 94 92 91 91 92 93 94 95 94 90 86 82 79 76 75 75 77 81 83 85 86 86 88 91 96 97 98 97 93 89 87 88 90 92 94 96 96 92 86 79 71 65
99 100 98 95 94 95 98 102 102 102 102 101 101 102 101 100 100 99 99 99 98 95 92 89 89 89 89 88 88 89 90 91 90 90 88 87 85 83 80 78 76 76 77 80 82 82 83 82 82 82 83 87 90 91 92 91 87 84 82 82 82 84 86 88 88 85 80 74 68
99 100 98 95 94 94 95 98 102 103 102 101 101 100 99 99 99 100 101 101 99 98 96 94 91 88 88 90 90 89 87 87 88 88 88 87 83 81 79 79 78 78 79 82 83 83 83 82 81 81 81 82 85 85 84 84 83 80 77 75 74 74 74 74 75 77 77 76 72
93 95 95 93 90 87 85 88 96 99 100 99 98 97 96 96 96 97 97 95 94 94 96 98 95 92 91 92 91 88 86 85 86 88 88 88 85 83 81 80 79 79 80 82 84 84 84 83 82 81 80 80 80 80 80 79 78 77 74 71 70 70 70 71 70 70 70 71 71
90 91 91 89 85 82 81 82 87 91 93 94 93 92 90 89 88 88 89 90 90 90 91 92 92 91 89 88 87 87 86 85 85 86 87 88 87 86 84 82 80 80 81 83 85 85 85 85 84 83 82 80 79 78 77 77 77 76 75 73 70 69 70 71 69 67 65 64 66
89 89 87 85 83 83 84 86 87 88 89 90 89 89 87 86 86 86 86 89 91 91 90 90 91 90 89 86 86 85 85 84 83 84 86 88 88 86 83 80 79 80 82 85 87 87 87 87 87 86 84 83 82 81 81 80 79 78 76 74 71 69 68 69 68 67 65 64 63
83 85 86 87 88 88 89 90 90 89 88 88 88 89 90 91 90 88 87 88 89 90 90 90 91 91 91 90 88 86 84 83 83 84 85 86 85 84 81 78 77 80 83 87 88 88 89 89 89 88 87 85 85 84 83 84 82 80 77 74 71 68 66 66 66 66 67 68 68
78 81 85 89 91 93 92 91 90 89 88 88 88 89 91 92 91 89 87 85 85 86 86 86 89 90 91 91 90 88 85 83 82 83 83 83 82 80 78 76 76 80 84 87 88 89 90 90 90 90 89 87 86 84 84 84 83 82 81 79 75 70 66 61 58 58 61 68 71
75 79 83 86 89 91 91 90 88 88 87 87 86 85 85 86 86 87 87 86 85 84 83 83 85 86 86 84 84 83 83 82 81 81 82 83 83 81 80 79 80 82 85 88 89 89 90 90 90 89 89 87 85 84 84 84 84 83 83 82 77 71 64 57 48 41 39 53 69
74 79 83 85 86 87 88 88 87 87 86 86 85 84 82 82 82 85 87 89 87 85 83 82 82 81 80 79 77 77 78 80 80 81 81 83 85 85 84 83 82 83 85 88 89 89 88 88 88 87 86 85 85 85 85 85 84 83 81 79 73 65 56 47 36 22 2 338 89
73 80 84 86 85 86 87 87 87 87 86 86 85 85 84 84 83 84 86 88 87 86 84 81 80 79 79 78 77 76 76 78 80 80 81 83 85 87 87 86 84 83 84 85 86 87 86 86 86 86 85 84 85 86 87 87 86 84 81 77 71 62 50 38 27 15 360 314 166
72 79 84 86 86 87 87 88 88 88 88 86 85 84 84 85 84 83 84 87 89 89 87 84 82 81 81 82 81 78 76 76 78 80 81 82 84 87 88 87 83 81 80 81 83 84 85 86 86 86 86 87 88 89 91 92 90 88 85 82 76 66 52 37 24 13 6 5 79
70 78 83 87 88 88 89 89 89 90 90 89 86 85 84 84 84 83 84 86 90 92 91 88 86 85 85 85 83 80 77 74 75 77 79 80 80 82 84 85 82 80 79 80 82 83 84 85 86 87 88 89 91 93 95 97 95 93 91 89 85 77 64 49 37 21 12 11 39
69 76 82 87 89 90 90 89 89 90 91 91 90 88 87 87 88 87 87 87 89 91 91 90 89 87 86 85 85 82 79 75 73 73 75 76 76 77 79 81 82 82 82 84 85 86 86 87 88 89 91 92 95 98 100 101 99 97 94 93 92 88 78 64 52 37 23 11 16
66 73 80 85 88 90 90 90 90 90 90 91 91 92 92 93 93 92 91 90 90 90 91 90 89 88 87 85 85 83 81 78 73 72 72 74 74 74 75 79 82 84 87 90 92 92 93 93 94 96 98 101 100 100 100 101 100 98 97 94 94 92 87 75 60 45 31 16 4